| time (UTC) | temp C | wind direction | speed KPH | gust KPH | rain 1hr cm | rain 24hr cm | rain mn cm | humidity % | barometer mb |
| 20260510020024 | 17 | 121 | 0.0 | 4.8 | 0.00 | 0.00 | 0.00 | 73 | 997.4 |
| 20260510014525 | 16 | 317 | 1.6 | 6.4 | 0.00 | 0.00 | 0.00 | 73 | 997.0 |
| 20260510013016 | 16 | 251 | 1.6 | 12.9 | 0.00 | 0.00 | 0.00 | 73 | 996.7 |
| 20260510011520 | 16 | 51 | 4.8 | 14.5 | 0.00 | 0.00 | 0.00 | 74 | 996.8 |
| 20260510010025 | 16 | 103 | 1.6 | 12.9 | 0.00 | 0.00 | 0.00 | 74 | 996.8 |
| 20260510004525 | 16 | 299 | 1.6 | 14.5 | 0.00 | 0.00 | 0.00 | 75 | 996.9 |
| 20260510003029 | 16 | 38 | 3.2 | 11.3 | 0.00 | 0.00 | 0.00 | 74 | 996.9 |
| 20260510001516 | 16 | 183 | 1.6 | 16.1 | 0.00 | 0.00 | 0.00 | 75 | 996.8 |
| 20260510000023 | 16 | 135 | 1.6 | 8.0 | 0.00 | 0.00 | 0.00 | 75 | 997.0 |
| 20260509234524 | 16 | 262 | 3.2 | 11.3 | 0.00 | 0.00 | 0.00 | 75 | 996.8 |
| 20260509233026 | 16 | 356 | 4.8 | 16.1 | 0.00 | 0.00 | 0.00 | 76 | 996.7 |
| 20260509231528 | 16 | 256 | 3.2 | 9.7 | 0.00 | 0.00 | 0.00 | 76 | 996.9 |
| 20260509230019 | 16 | 97 | 4.8 | 17.7 | 0.00 | 0.00 | 0.00 | 76 | 997.0 |
| 20260509224524 | 16 | 198 | 1.6 | 8.0 | 0.00 | 0.00 | 0.00 | 76 | 997.0 |
| 20260509223010 | 15 | 218 | 3.2 | 14.5 | 0.00 | 0.00 | 0.00 | 76 | 997.2 |
| 20260509221514 | 15 | 49 | 1.6 | 16.1 | 0.00 | 0.00 | 0.00 | 75 | 997.1 |
| 20260509220017 | 15 | 57 | 3.2 | 9.7 | 0.00 | 0.00 | 0.00 | 74 | 997.0 |
| 20260509214522 | 15 | 309 | 1.6 | 9.7 | 0.00 | 0.00 | 0.00 | 76 | 996.8 |
| 20260509213004 | 15 | 136 | 1.6 | 11.3 | 0.00 | 0.00 | 0.00 | 78 | 997.1 |
| 20260509211515 | 15 | 227 | 1.6 | 11.3 | 0.00 | 0.00 | 0.00 | 78 | 996.9 |
| 20260509210016 | 14 | 202 | 4.8 | 16.1 | 0.00 | 0.00 | 0.00 | 79 | 996.9 |
| 20260509204521 | 13 | 205 | 3.2 | 14.5 | 0.00 | 0.00 | 0.00 | 81 | 996.9 |
| 20260509203024 | 12 | 115 | 1.6 | 6.4 | 0.00 | 0.00 | 0.00 | 84 | 997.0 |
| 20260509201506 | 12 | 224 | 0.0 | 8.0 | 0.00 | 0.00 | 0.00 | 85 | 996.9 |
| 20260509200012 | 12 | 210 | 1.6 | 11.3 | 0.00 | 0.00 | 0.00 | 84 | 996.6 |
| 20260509194522 | 12 | 86 | 4.8 | 14.5 | 0.00 | 0.00 | 0.00 | 83 | 996.8 |
| 20260509193024 | 12 | 86 | 3.2 | 22.5 | 0.00 | 0.00 | 0.00 | 83 | 996.2 |
| 20260509191527 | 12 | 58 | 1.6 | 11.3 | 0.00 | 0.00 | 0.00 | 83 | 996.3 |
| 20260509190012 | 12 | 278 | 3.2 | 12.9 | 0.00 | 0.00 | 0.00 | 83 | 996.4 |
| 20260509184517 | 12 | 51 | 3.2 | 12.9 | 0.00 | 0.00 | 0.00 | 83 | 996.1 |
| 20260509183022 | 12 | 315 | 3.2 | 9.7 | 0.00 | 0.00 | 0.00 | 84 | 996.1 |
| 20260509181521 | 12 | 288 | 1.6 | 11.3 | 0.00 | 0.00 | 0.00 | 84 | 996.2 |
| 20260509180027 | 12 | 293 | 3.2 | 14.5 | 0.00 | 0.00 | 0.00 | 85 | 996.1 |
| 20260509174510 | 12 | 75 | 1.6 | 14.5 | 0.00 | 0.00 | 0.00 | 84 | 996.0 |
| 20260509173049 | 12 | 217 | 1.6 | 17.7 | 0.00 | 0.00 | 0.00 | 83 | 996.0 |
| 20260509171527 | 12 | 262 | 1.6 | 12.9 | 0.00 | 0.00 | 0.00 | 83 | 996.1 |
| 20260509170024 | 12 | 6 | 1.6 | 9.7 | 0.00 | 0.00 | 0.00 | 82 | 996.1 |
| 20260509164527 | 12 | 262 | 1.6 | 9.7 | 0.00 | 0.00 | 0.00 | 83 | 996.0 |
| 20260509163022 | 12 | 65 | 1.6 | 12.9 | 0.00 | 0.00 | 0.00 | 82 | 996.0 |
| 20260509161520 | 12 | 124 | 1.6 | 14.5 | 0.00 | 0.00 | 0.00 | 82 | 995.8 |
| 20260509160023 | 12 | 259 | 1.6 | 6.4 | 0.00 | 0.00 | 0.00 | 82 | 995.8 |
| 20260509154505 | 12 | 274 | 1.6 | 8.0 | 0.00 | 0.00 | 0.00 | 82 | 995.8 |
| 20260509153022 | 12 | 211 | 3.2 | 8.0 | 0.00 | 0.00 | 0.00 | 82 | 996.0 |
| 20260509151516 | 12 | 37 | 3.2 | 11.3 | 0.00 | 0.00 | 0.00 | 82 | 996.1 |
| 20260509150022 | 12 | 354 | 1.6 | 8.0 | 0.00 | 0.00 | 0.00 | 83 | 996.1 |
| 20260509144526 | 12 | 103 | 3.2 | 17.7 | 0.00 | 0.00 | 0.00 | 82 | 996.5 |
| 20260509143012 | 12 | 102 | 1.6 | 9.7 | 0.00 | 0.00 | 0.00 | 83 | 996.5 |
| 20260509141511 | 12 | 293 | 1.6 | 6.4 | 0.00 | 0.00 | 0.00 | 83 | 996.8 |
| 20260509140018 | 12 | 252 | 1.6 | 8.0 | 0.00 | 0.00 | 0.00 | 84 | 996.8 |
| 20260509134522 | 12 | 179 | 3.2 | 9.7 | 0.00 | 0.00 | 0.00 | 87 | 996.6 |
| 20260509133026 | 12 | 305 | 3.2 | 11.3 | 0.00 | 0.00 | 0.00 | 87 | 996.7 |
| 20260509131510 | 12 | 247 | 3.2 | 17.7 | 0.00 | 0.00 | 0.00 | 86 | 996.7 |
| 20260509130042 | 12 | 285 | 1.6 | 14.5 | 0.00 | 0.00 | 0.00 | 87 | 996.7 |
| 20260509124529 | 12 | 41 | 4.8 | 16.1 | 0.00 | 0.00 | 0.00 | 88 | 996.7 |
| 20260509123030 | 12 | 215 | 3.2 | 11.3 | 0.00 | 0.00 | 0.00 | 87 | 996.5 |
| 20260509121526 | 12 | 263 | 3.2 | 12.9 | 0.00 | 0.00 | 0.00 | 86 | 996.4 |
| 20260509120015 | 12 | 251 | 4.8 | 20.9 | 0.00 | 0.00 | 0.00 | 86 | 996.9 |
| 20260509114519 | 12 | 264 | 3.2 | 12.9 | 0.00 | 0.00 | 0.00 | 85 | 997.1 |
| 20260509113021 | 13 | 168 | 3.2 | 16.1 | 0.00 | 0.00 | 0.00 | 84 | 997.2 |
| 20260509111524 | 13 | 339 | 1.6 | 12.9 | 0.00 | 0.00 | 0.00 | 82 | 996.9 |
| 20260509110028 | 13 | 314 | 4.8 | 16.1 | 0.00 | 0.00 | 0.00 | 83 | 996.9 |
| 20260509104514 | 13 | 228 | 3.2 | 17.7 | 0.00 | 0.00 | 0.00 | 81 | 997.1 |
| 20260509103018 | 13 | 336 | 4.8 | 17.7 | 0.00 | 0.00 | 0.00 | 79 | 997.2 |
| 20260509101533 | 13 | 86 | 4.8 | 20.9 | 0.00 | 0.00 | 0.00 | 78 | 997.4 |
| 20260509100026 | 13 | 340 | 3.2 | 19.3 | 0.00 | 0.00 | 0.00 | 80 | 997.3 |
| 20260509094531 | 13 | 158 | 3.2 | 20.9 | 0.00 | 0.00 | 0.00 | 78 | 997.3 |
| 20260509093016 | 13 | 338 | 3.2 | 17.7 | 0.00 | 0.00 | 0.00 | 82 | 997.2 |
| 20260509091520 | 13 | 263 | 4.8 | 16.1 | 0.00 | 0.05 | 0.00 | 83 | 997.3 |
| 20260509090024 | 13 | 94 | 4.8 | 14.5 | 0.00 | 0.23 | 0.00 | 81 | 997.0 |
| 20260509084506 | 13 | 262 | 4.8 | 16.1 | 0.00 | 0.94 | 0.00 | 84 | 996.7 |
| 20260509083012 | 13 | 210 | 4.8 | 25.7 | 0.00 | 1.45 | 0.00 | 84 | 996.5 |
| 20260509081518 | 13 | 87 | 6.4 | 30.6 | 0.00 | 1.73 | 0.00 | 83 | 996.8 |
| 20260509080021 | 13 | 326 | 3.2 | 19.3 | 0.00 | 1.88 | 0.00 | 84 | 996.9 |
| 20260509074526 | 13 | 112 | 3.2 | 19.3 | 0.00 | 1.88 | 0.00 | 84 | 997.0 |
| 20260509073010 | 13 | 82 | 3.2 | 12.9 | 0.00 | 1.96 | 0.00 | 84 | 996.8 |
| 20260509071515 | 13 | 345 | 4.8 | 17.7 | 0.00 | 1.96 | 0.00 | 84 | 996.8 |
| 20260509070022 | 13 | 220 | 3.2 | 16.1 | 0.00 | 2.06 | 0.00 | 84 | 996.9 |
| 20260509064523 | 13 | 44 | 3.2 | 12.9 | 0.00 | 2.29 | 0.00 | 86 | 996.9 |
| 20260509063034 | 13 | 158 | 3.2 | 20.9 | 0.00 | 2.46 | 0.00 | 87 | 996.9 |
| 20260509061514 | 13 | 91 | 4.8 | 16.1 | 0.00 | 2.51 | 0.00 | 88 | 996.7 |
| 20260509060016 | 13 | 214 | 3.2 | 12.9 | 0.00 | 2.54 | 0.00 | 89 | 996.6 |
| 20260509054523 | 13 | 230 | 1.6 | 9.7 | 0.00 | 2.62 | 0.00 | 88 | 996.7 |
| 20260509053024 | 13 | 114 | 1.6 | 6.4 | 0.00 | 2.67 | 0.00 | 88 | 997.0 |
| 20260509051528 | 13 | 233 | 1.6 | 14.5 | 0.00 | 2.67 | 0.00 | 88 | 996.9 |
| 20260509050022 | 13 | 79 | 0.0 | 12.9 | 0.00 | 2.67 | 0.00 | 88 | 996.7 |
| 20260509044520 | 14 | 250 | 1.6 | 11.3 | 0.00 | 2.67 | 0.00 | 87 | 996.8 |
| 20260509043025 | 14 | 236 | 3.2 | 17.7 | 0.00 | 2.67 | 0.00 | 87 | 996.8 |
| 20260509041524 | 14 | 93 | 3.2 | 17.7 | 0.00 | 2.67 | 0.00 | 86 | 997.0 |
| 20260509040035 | 15 | 36 | 3.2 | 12.9 | 0.00 | 2.67 | 0.00 | 86 | 997.0 |
| 20260509034512 | 15 | 47 | 3.2 | 11.3 | 0.00 | 2.67 | 0.00 | 87 | 996.8 |
| 20260509033018 | 15 | 316 | 4.8 | 14.5 | 0.00 | 2.69 | 0.00 | 87 | 996.7 |
| 20260509031529 | 15 | 1 | 1.6 | 11.3 | 0.00 | 2.69 | 0.00 | 87 | 996.5 |
| 20260509030026 | 15 | 124 | 1.6 | 8.0 | 0.00 | 2.69 | 0.00 | 87 | 996.6 |
| 20260509024528 | 15 | 240 | 1.6 | 24.1 | 0.00 | 2.69 | 0.00 | 87 | 996.7 |
| 20260509023016 | 15 | 233 | 1.6 | 17.7 | 0.00 | 2.69 | 0.00 | 88 | 996.8 |
| 20260509021522 | 15 | 352 | 4.8 | 12.9 | 0.00 | 2.69 | 0.00 | 88 | 996.6 |